Location: Carrer del Canonge
(41.4901°N, 2.2931°E)
Time: 14:10:38
(UTC+00:00)

COSMOS 2406 - Pass Details

Date: 18 September 2020
Orbit: 844 x 863 km, 71.0° (Epoch: 28 October)

Event Time Altitude Azimuth Distance (km) Brightness Sun altitude
Rises 20:48:19 0° 340° (NNW) 3,411 7.1 -31.4°
Reaches altitude 10° 20:50:51 10° 346° (NNW) 2,473 6.2 -31.8°
Enters shadow 20:54:19 35° 8° (N) 1,352 4.4 -32.3°
